This demonstration page uses our WeatherBlox Daily Observations layout. Learn more.

Left ArrowRight Arrow

31.31129, -92.44514

Hourly Observations for August 3, 2022

Temp ( °F °C ) Dew Point ( °F °C ) Humidity (%) Winds ( mph kmh ) Pressure ( in mb ) Visibility ( mi km ) Precip ( " mm )
12:25 am 00:25 Partly Cloudy 77 25 74 23.3 90 90 SE 6 9 29.97 1015 10 16 0.00 0.00
12:53 am 00:53 Mostly Cloudy 77 25 74 23.3 90 90 SE 7 11 29.97 1015 9 14 0.00 0.00
1:53 am 01:53 Cloudy with Mist and Fog 77 25 75 23.9 94 94 SSW 3 6 29.96 1015 3 5 0.00 0.00
2:53 am 02:53 Cloudy with Mist and Fog 77 25 75 23.9 94 94 SE 3 6 29.96 1015 6 10 0.00 0.00
3:02 am 03:02 Cloudy 77 25 75 23.9 94 94 SE 5 7 29.96 1014 7 11 0.00 0.00
3:53 am 03:53 Cloudy 78 25.6 75 23.9 90 90 Calm 29.96 1014 7 11 0.00 0.00
4:53 am 04:53 Cloudy 78 25.6 76 24.4 93 93 SSE 6 9 29.96 1015 7 11 0.00 0.00
5:00 am 05:00 Cloudy 78 25.6 76 24.4 93 93 SE 6 9 29.96 1014 7 11 0.00 0.00
5:53 am 05:53 Cloudy with Mist and Fog 78 25.6 76 24.4 93 93 SE 6 9 29.97 1015 3 5 0.00 0.00
6:44 am 06:44 Cloudy with Mist and Fog 78 25.6 76 24.4 93 93 SSE 5 7 29.98 1015 2 3 0.00 0.00
6:53 am 06:53 Cloudy with Mist and Fog 78 25.6 76 24.4 93 93 SSE 5 7 29.99 1016 2 2 0.00 0.00
7:02 am 07:02 Mostly Cloudy with Fog 78 25.6 76 24.4 93 93 S 6 9 29.99 1015 1 1 0.00 0.00
7:12 am 07:12 Mostly Cloudy with Fog 78 25.6 76 24.4 93 93 S 5 7 29.99 1015 0 0 0.00 0.00
7:32 am 07:32 Mostly Cloudy with Fog 78 25.6 76 24.4 93 93 undefined N/A 29.99 1015 1 1 0.00 0.00
7:50 am 07:50 Mostly Cloudy with Mist and Fog 79 26 75 24 89 89 S 5 7 29.99 1015 1 2 0.00 0.00
7:53 am 07:53 Cloudy with Mist and Fog 78 25.6 76 24.4 93 93 SSE 5 7 30.00 1016 1 2 0.00 0.00
8:08 am 08:08 Cloudy with Mist and Fog 79 26.1 77 25 94 94 S 3 6 29.99 1015 3 5 0.00 0.00
8:53 am 08:53 Cloudy with Mist and Fog 80 26.7 77 25 90 90 Calm 29.99 1016 6 10 0.00 0.00
9:40 am 09:40 Cloudy 83 28.3 77 25 82 82 Calm 29.98 1015 9 14 0.00 0.00
9:44 am 09:44 Cloudy 83 28.3 77 25 82 82 S 3 6 29.98 1015 9 14 0.00 0.00
9:50 am 09:50 Cloudy 84 29 77 25 79 79 Calm 29.98 1015 9 14 0.00 0.00
9:51 am 09:51 Cloudy 84 29 77 25 79 79 Calm 29.98 1015 9 14 0.00 0.00
9:53 am 09:53 Cloudy 84 28.9 77 25 80 80 Calm 29.99 1016 9 14 0.00 0.00
10:13 am 10:13 Mostly Cloudy 86 30 78 25.6 77 77 S 5 7 29.98 1015 10 16 0.00 0.00
10:26 am 10:26 Mostly Cloudy 86 30 78 25.6 77 77 VRB 3 6 29.98 1015 10 16 0.00 0.00
10:53 am 10:53 Mostly Cloudy 89 31.7 78 25.6 70 70 SW 5 7 29.98 1015 10 16 0.00 0.00
11:53 am 11:53 Mostly Sunny 91 32.8 76 24.4 61 61 W 8 13 29.96 1015 10 16 0.00 0.00
12:53 pm 12:53 Sunny 93 33.9 75 23.9 56 56 VRB 5 7 29.95 1014 10 16 0.00 0.00
1:53 pm 13:53 Mostly Cloudy 86 30 74 23.3 67 67 SE 23 37 29.96 1015 10 16 0.00 0.00
2:49 pm 14:49 Cloudy with Nearby Thunderstorms 81 27 72 22 74 74 SE 25 41 29.96 1014 10 16 0.00 0.00
2:53 pm 14:53 Cloudy with Nearby Thunderstorms 81 27.2 72 22.2 74 74 SE 24 39 29.97 1015 10 16 0.00 0.00
3:19 pm 15:19 Cloudy with Nearby Thunderstorms 79 26.1 73 22.8 82 82 SE 25 41 29.97 1015 10 16 0.00 0.00
3:24 pm 15:24 Cloudy with Thunderstorms 78 25.6 72 22.2 82 82 SE 24 39 29.96 1014 10 16 0.00 0.00
3:53 pm 15:53 Cloudy with Thunderstorms 78 25.6 73 22.8 85 85 NNE 7 11 30.00 1016 10 16 0.00 0.00
4:12 pm 16:12 Mostly Cloudy with Thunderstorms 78 25.6 72 22.2 82 82 VRB 3 6 29.98 1015 2 3 0.02 0.51
4:19 pm 16:19 Mostly Cloudy with Nearby Thunderstorms 78 25.6 72 22.2 82 82 ESE 8 13 29.97 1015 2 3 0.03 0.76
4:34 pm 16:34 Mostly Cloudy with Rain 77 25 73 22.8 88 88 S 6 9 29.96 1014 2 3 0.04 1.02
4:41 pm 16:41 Mostly Cloudy with Nearby Thunderstorms 77 25 73 22.8 88 88 SW 5 7 29.95 1014 2 3 0.04 1.02
4:53 pm 16:53 Mostly Cloudy with Nearby Thunderstorms 77 25 73 22.8 88 88 WSW 7 11 29.95 1014 2 3 0.05 1.27
5:00 pm 17:00 Partly Cloudy with Nearby Thunderstorms 77 25 73 22.8 88 88 WSW 7 11 29.94 1014 5 8 0.01 0.25
5:13 pm 17:13 Mostly Cloudy with Rain 77 25 74 23.3 90 90 Calm 29.95 1014 5 8 0.02 0.51
5:53 pm 17:53 Partly Cloudy with Light Rain 78 25.6 74 23.3 87 87 W 5 7 29.95 1014 9 14 0.05 1.27
6:53 pm 18:53 Partly Cloudy with Light Rain 77 25 74 23.3 90 90 Calm 29.92 1013 6 10 0.03 0.76
7:53 pm 19:53 Mostly Sunny 77 25 74 23.3 90 90 SSE 9 15 29.91 1013 9 14 0.01 0.25
8:08 pm 20:08 Partly Cloudy 77 25 75 23.9 94 94 SE 12 19 29.91 1013 8 13 0.00 0.00
8:15 pm 20:15 Mostly Cloudy with Light Rain 77 25 74 23.3 90 90 ESE 13 20 29.92 1013 9 14 0.00 0.00
8:53 pm 20:53 Mostly Cloudy 76 24.4 73 22.8 91 91 SE 12 19 29.94 1014 10 16 0.00 0.00
9:00 pm 21:00 Partly Cloudy 76 24.4 73 22.8 91 91 SSE 12 19 29.94 1014 10 16 0.00 0.00
9:53 pm 21:53 Clear 76 24.4 73 22.8 91 91 SSE 8 13 29.96 1015 10 16 0.00 0.00
10:35 pm 22:35 Mostly Clear 75 23.9 73 22.8 94 94 SSE 7 11 29.96 1014 10 16 0.00 0.00
10:49 pm 22:49 Mostly Cloudy 75 24 73 23 94 94 SE 8 13 29.96 1014 10 16 0.00 0.00
10:53 pm 22:53 Mostly Cloudy 75 23.9 73 22.8 94 94 SE 8 13 29.97 1015 10 16 0.00 0.00
11:22 pm 23:22 Cloudy 75 23.9 73 22.8 94 94 SE 9 15 29.97 1015 10 16 0.00 0.00
11:53 pm 23:53 Cloudy 75 23.9 73 22.8 94 94 SE 10 17 29.98 1015 10 16 0.00 0.00

Powered by AerisWeather